TimeEST,TemperatureF,Dew PointF,Humidity,Sea Level PressureIn,VisibilityMPH,Wind Direction,Wind SpeedMPH,Gust SpeedMPH,PrecipitationIn,Events,Conditions,WindDirDegrees,DateUTC
12:00 AM,33.8,32.0,93,30.62,1.0,East,5.8,-,N/A,,Clear,80,2012-11-18 05:00:00
12:07 AM,33.8,33.8,100,30.62,0.5,East,5.8,-,N/A,Fog,Fog,80,2012-11-18 05:07:00
12:19 AM,33.8,33.8,100,30.62,0.2,East,6.9,-,N/A,Fog,Fog,80,2012-11-18 05:19:00
12:29 AM,33.8,33.8,100,30.62,0.1,East,6.9,-,N/A,Fog,Fog,80,2012-11-18 05:29:00
1:00 AM,34,34,98,30.61,0,East,6.9,,,,,80,2012-11-18 06:00:00
1:00 AM,33.8,33.8,100,30.60,0.1,East,8.1,-,N/A,Fog,Fog,80,2012-11-18 06:00:00
2:00 AM,33.8,33.8,100,30.59,0.1,ENE,6.9,-,N/A,Fog,Fog,70,2012-11-18 07:00:00
3:00 AM,32.0,32.0,100,30.60,0.1,East,5.8,-,N/A,Fog,Fog,80,2012-11-18 08:00:00
3:32 AM,32.0,32.0,100,30.59,0.1,East,3.5,-,N/A,Fog,Light Freezing Fog,80,2012-11-18 08:32:00
4:00 AM,32.0,32.0,100,30.59,0.1,East,6.9,-,N/A,Fog,Light Freezing Fog,90,2012-11-18 09:00:00
4:38 AM,32.0,30.2,93,30.59,0.4,East,6.9,-,N/A,Fog,Light Freezing Fog,90,2012-11-18 09:38:00
4:46 AM,32.0,30.2,93,30.59,0.5,East,6.9,-,N/A,Fog,Light Freezing Fog,80,2012-11-18 09:46:00
5:00 AM,32.0,30.2,93,30.59,0.5,East,8.1,-,N/A,Fog,Light Freezing Fog,80,2012-11-18 10:00:00
5:10 AM,32.0,30.2,93,30.59,1.0,East,9.2,-,N/A,,Clear,80,2012-11-18 10:10:00
5:38 AM,32.0,32.0,100,30.60,3.0,East,9.2,-,N/A,,Clear,80,2012-11-18 10:38:00
6:00 AM,32.0,30.2,93,30.60,4.0,ENE,6.9,-,N/A,,Clear,70,2012-11-18 11:00:00
7:00 AM,31,31,99,30.60,3,East,10.4,,,,,80,2012-11-18 12:00:00
7:00 AM,32.0,30.2,93,30.60,3.0,East,10.4,-,N/A,,Mostly Cloudy,80,2012-11-18 12:00:00
7:08 AM,32.0,30.2,93,30.60,2.0,East,8.1,-,N/A,,Mostly Cloudy,80,2012-11-18 12:08:00
8:00 AM,32.0,32.0,100,30.61,1.0,East,10.4,-,N/A,,Mostly Cloudy,80,2012-11-18 13:00:00
8:11 AM,32.0,32.0,100,30.61,0.5,East,11.5,-,N/A,,Mist,80,2012-11-18 13:11:00
9:00 AM,33.8,33.8,100,30.61,0.5,East,10.4,-,N/A,,Mist,80,2012-11-18 14:00:00
9:38 AM,35.6,35.6,100,30.61,1.5,East,10.4,-,N/A,,Overcast,80,2012-11-18 14:38:00
10:00 AM,39.2,37.4,93,30.60,2.0,East,10.4,-,N/A,,Overcast,90,2012-11-18 15:00:00
10:26 AM,41.0,39.2,93,30.60,3.0,East,11.5,-,N/A,,Overcast,90,2012-11-18 15:26:00
11:00 AM,44.6,41.0,87,30.59,3.0,East,8.1,-,N/A,,Haze,90,2012-11-18 16:00:00
12:00 PM,48.2,39.2,71,30.56,8.0,East,8.1,-,N/A,,Haze,90,2012-11-18 17:00:00
1:00 PM,50,37,51,30.53,7,East,6.9,,,,,90,2012-11-18 18:00:00
1:00 PM,50.0,37.4,62,30.53,8.0,East,6.9,-,N/A,,Mostly Cloudy,100,2012-11-18 18:00:00
2:00 PM,51.8,35.6,54,30.52,10.0,ESE,8.1,-,N/A,,Mostly Cloudy,120,2012-11-18 19:00:00
3:00 PM,51.8,33.8,50,30.51,15.0,East,11.5,-,N/A,,Mostly Cloudy,100,2012-11-18 20:00:00
4:00 PM,50.0,33.8,54,30.50,15.0,ESE,11.5,-,N/A,,Scattered Clouds,110,2012-11-18 21:00:00
5:00 PM,42.8,32.0,66,30.50,15.0,East,8.1,-,N/A,,Scattered Clouds,100,2012-11-18 22:00:00
6:00 PM,41.0,32.0,70,30.51,15.0,East,10.4,-,N/A,,Clear,90,2012-11-18 23:00:00
7:00 PM,39,33,73,30.52,15,East,10.4,,,,,80,2012-11-19 00:00:00
7:00 PM,39.2,33.8,81,30.52,15.0,East,12.7,-,N/A,,Clear,80,2012-11-19 00:00:00
8:00 PM,35.6,33.8,93,30.51,8.0,East,8.1,-,N/A,,Clear,80,2012-11-19 01:00:00
8:31 PM,35.6,32.0,87,30.51,8.0,East,6.9,-,N/A,,Clear,80,2012-11-19 01:31:00
9:00 PM,35.6,33.8,93,30.51,6.0,East,6.9,-,N/A,,Clear,80,2012-11-19 02:00:00
10:00 PM,35.6,33.8,93,30.50,4.0,East,5.8,-,N/A,,Clear,80,2012-11-19 03:00:00
11:00 PM,33.8,33.8,100,30.49,3.0,East,6.9,-,N/A,,Clear,80,2012-11-19 04:00:00